Hanford, CA

11:22 AM PDT on October 22, 2017 (GMT -0700)
Hanford Municipal

Weather History for KHJO - January, 2015

Change the Weather History Date:

Monday, January 19, 2015

  Actual Average Record
Temperature  
Mean Temperature 47 °F 46 °F  
Max Temperature 49 °F 55 °F 72 °F (2014)
Min Temperature 45 °F 37 °F 20 °F (2012)
Degree Days  
Heating Degree Days 18    
Month to date heating degree days 339  
Since 1 July heating degree days 1087  
Cooling Degree Days 0    
Month to date cooling degree days 0  
Year to date cooling degree days 0  
Moisture  
Dew Point 45 °F    
Average Humidity 93    
Maximum Humidity 100    
Minimum Humidity 86    
Precipitation  
Precipitation 0.00 in 0.05 in 0.56 in (2016)
Month to date precipitation 0.00 1.57  
Year to date precipitation 0.00 1.57  
Since 1 July precipitation 3.13  
Snow  
Snow 0.00 in - - ()
Month to date snowfall 0.0  
Since 1 July snowfall 0.0  
Snow Depth 0.00 in    
Sea Level Pressure  
Sea Level Pressure 30.28 in    
Wind  
Wind Speed 2 mph (NE)    
Max Wind Speed 7 mph    
Max Gust Speed 9 mph    
Visibility 2 miles    
Events Fog    
T = Trace of Precipitation, MM = Missing Value Source: NWS Daily Summary

Daily Weather History Graph

Daily Weather History Graph

Search for Another Location

Airport or City:

Trip Planner

Search our weather history database for the weather conditions in past years. The results will help you decide how hot, cold, wet, or windy it might be!

Date:

Astronomy

Jan. 19, 2015 Rise Set
Actual Time 7:07 AM PST 5:11 PM PST
Civil Twilight 6:39 AM PST 5:38 PM PST
Nautical Twilight 6:08 AM PST 6:10 PM PST
Astronomical Twilight 5:37 AM PST 6:41 PM PST
Moon 6:04 AM PST (1/19) 4:43 PM PST (1/19)
Length of Visible Light 10h 58m
Length of Day
10h 03m
Waning Crescent, 1% of the Moon is Illuminated
Jan 19
Waning Crescent
Jan 20
New
Jan 26
First Quarter
Feb 3
Full
Feb 11
Last Quarter

Hourly Weather History & Observations

Time (PST) Temp. Windchill Dew Point Humidity Pressure Visibility Wind Dir Wind Speed Gust Speed Precip Events Conditions
12:29 AM 45.0 °F 42.6 °F 44.1 °F 97% 30.32 in 1.8 mi South 4.6 mph - N/A   Overcast
12:53 AM 45.0 °F 42.6 °F 44.1 °F 97% 30.33 in 1.5 mi SSE 4.6 mph - N/A   Overcast
1:53 AM 45.0 °F 43.5 °F 44.1 °F 97% 30.32 in 1.2 mi SSE 3.5 mph - N/A   Overcast
2:53 AM 45.0 °F - 45.0 °F 100% 30.32 in 1.0 mi Calm Calm - N/A   Overcast
3:07 AM 45.0 °F - 44.1 °F 97% 30.30 in 0.8 mi Calm Calm - N/A   Overcast
3:41 AM 45.0 °F - 44.1 °F 97% 30.30 in 0.2 mi Calm Calm - N/A Fog Fog
3:53 AM 45.0 °F - 44.1 °F 97% 30.31 in 0.2 mi Calm Calm - N/A Fog Fog
4:53 AM 46.0 °F - 45.0 °F 96% 30.30 in 0.2 mi Calm Calm - N/A Fog Fog
5:53 AM 46.0 °F - 45.0 °F 96% 30.32 in 0.2 mi Calm Calm - N/A Fog Fog
6:53 AM 46.0 °F 43.9 °F 45.0 °F 96% 30.34 in 0.2 mi West 4.6 mph - N/A Fog Fog
7:53 AM 46.0 °F - 45.0 °F 96% 30.31 in 0.2 mi Calm Calm - N/A Fog Fog
8:53 AM 46.0 °F - 46.0 °F 100% 30.34 in 0.2 mi Calm Calm - N/A Fog Fog
9:16 AM 46.0 °F - 46.0 °F 100% 30.33 in 0.5 mi Calm Calm - N/A Fog Fog
9:53 AM 46.0 °F - 46.0 °F 100% 30.34 in 0.8 mi Calm Calm - N/A   Overcast
10:07 AM 46.0 °F 44.8 °F 45.0 °F 96% 30.33 in 1.0 mi SSE 3.5 mph - N/A   Overcast
10:53 AM 46.9 °F - 46.0 °F 97% 30.34 in 2.0 mi Calm Calm - N/A   Overcast
11:08 AM 46.9 °F - 46.0 °F 97% 30.32 in 1.8 mi Calm Calm - N/A   Overcast
11:51 AM 48.2 °F - 46.4 °F 93% 30.30 in 2.0 mi Calm Calm - N/A   Overcast
11:53 AM 48.0 °F - 46.0 °F 93% 30.31 in 2.0 mi Calm Calm - N/A   Overcast
12:05 PM 48.0 °F - 46.0 °F 93% 30.29 in 1.8 mi ENE 3.5 mph - N/A   Overcast
12:16 PM 48.0 °F - 46.0 °F 93% 30.29 in 1.8 mi Calm Calm - N/A   Overcast
12:26 PM 48.0 °F - 46.0 °F 93% 30.28 in 2.0 mi Calm Calm - N/A   Overcast
12:45 PM 48.0 °F - 46.0 °F 93% 30.28 in 2.0 mi Calm Calm - N/A   Overcast
12:53 PM 48.0 °F - 46.0 °F 93% 30.29 in 2.5 mi Calm Calm - N/A   Overcast
1:19 PM 48.9 °F - 45.0 °F 86% 30.26 in 3.0 mi Calm Calm - N/A   Overcast
1:30 PM 48.9 °F - 46.0 °F 90% 30.26 in 3.0 mi Calm Calm - N/A   Overcast
1:53 PM 48.9 °F - 46.0 °F 90% 30.27 in 2.5 mi North 3.5 mph - N/A   Overcast
2:21 PM 48.9 °F - 46.0 °F 90% 30.25 in 2.5 mi North 3.5 mph - N/A   Overcast
2:34 PM 48.0 °F - 45.0 °F 89% 30.25 in 3.0 mi NNE 3.5 mph - N/A   Overcast
2:44 PM 48.0 °F - 45.0 °F 89% 30.25 in 2.5 mi NE 3.5 mph - N/A   Overcast
2:53 PM 48.0 °F - 46.0 °F 93% 30.26 in 2.5 mi North 4.6 mph - N/A   Overcast
3:53 PM 48.0 °F - 45.0 °F 89% 30.25 in 2.5 mi NNE 3.5 mph - N/A   Overcast
4:43 PM 48.0 °F - 45.0 °F 89% 30.24 in 3.0 mi Calm Calm - N/A   Overcast
4:53 PM 48.0 °F - 45.0 °F 89% 30.25 in 3.0 mi Calm Calm - N/A   Overcast
5:53 PM 46.9 °F - 45.0 °F 93% 30.26 in 3.0 mi NE 5.8 mph - N/A   Overcast
6:53 PM 46.9 °F - 45.0 °F 93% 30.26 in 2.5 mi ENE 5.8 mph - N/A   Overcast
7:18 PM 46.9 °F - 45.0 °F 93% 30.25 in 2.0 mi East 4.6 mph - N/A   Overcast
7:53 PM 46.9 °F - 46.0 °F 97% 30.25 in 1.8 mi Calm Calm - N/A   Overcast
8:26 PM 46.0 °F - 45.0 °F 96% 30.24 in 1.0 mi Calm Calm - N/A   Overcast
8:53 PM 46.0 °F - 46.0 °F 100% 30.25 in 1.0 mi Calm Calm - N/A   Overcast
9:36 PM 46.9 °F - 46.0 °F 97% 30.24 in 1.5 mi Calm Calm - N/A   Overcast
9:43 PM 46.9 °F - 46.0 °F 97% 30.24 in 2.0 mi Calm Calm - N/A   Overcast
9:53 PM 46.9 °F - 45.0 °F 93% 30.25 in 2.5 mi NNE 3.5 mph - N/A   Overcast
10:07 PM 46.9 °F - 45.0 °F 93% 30.23 in 3.0 mi Calm Calm - N/A   Overcast
10:53 PM 46.9 °F - 45.0 °F 93% 30.24 in 4.0 mi NE 3.5 mph - N/A   Overcast
11:53 PM 46.9 °F - 45.0 °F 93% 30.23 in 4.0 mi East 3.5 mph - N/A   Overcast